Rifle, CO

2:25 AM MDT on October 18, 2017 (GMT -0600)
Garfield County Regional

Weather History for KRIL - June, 2013

Change the Weather History Date:

Tuesday, June 4, 2013

  Actual Average Record
Temperature  
Mean Temperature 66 °F 62 °F  
Max Temperature 87 °F 81 °F 93 °F (1977)
Min Temperature 45 °F 44 °F 31 °F (1961)
Degree Days  
Heating Degree Days 0 4  
Month to date heating degree days 12 17  
Since 1 June heating degree days 12 17  
Since 1 July heating degree days 6693 6583  
Cooling Degree Days 1 1  
Month to date cooling degree days 3 4  
Year to date cooling degree days 10 11  
Since 1 June cooling degree days 3 4  
Growing Degree Days 16 (Base 50)    
Moisture  
Dew Point 28 °F    
Average Humidity 30    
Maximum Humidity 49    
Minimum Humidity 11    
Precipitation  
Precipitation 0.00 in 0.05 in 0.75 in (1945)
Month to date precipitation 0.00 0.17  
Year to date precipitation 3.99 5.59  
Sea Level Pressure  
Sea Level Pressure 29.86 in    
Wind  
Wind Speed 7 mph (West)    
Max Wind Speed 37 mph    
Max Gust Speed 53 mph    
Visibility 9 miles    
Events      
T = Trace of Precipitation, MM = Missing Value Source: NWS Daily Summary

Daily Weather History Graph

Daily Weather History Graph

Search for Another Location

Airport or City:

Trip Planner

Search our weather history database for the weather conditions in past years. The results will help you decide how hot, cold, wet, or windy it might be!

Date:

Astronomy

Jun. 04, 2013 Rise Set
Actual Time 5:44 AM MDT 8:34 PM MDT
Civil Twilight 5:12 AM MDT 9:06 PM MDT
Nautical Twilight 4:32 AM MDT 9:46 PM MDT
Astronomical Twilight 3:46 AM MDT 10:33 PM MDT
Moon 3:15 AM MDT (6/4) 5:07 PM MDT (6/4)
Length of Visible Light 15h 54m
Length of Day
14h 50m
Waning Crescent, 14% of the Moon is Illuminated
Jun 4
Waning Crescent
Jun 8
New
Jun 16
First Quarter
Jun 23
Full
Jun 29
Last Quarter

Hourly Weather History & Observations

Time (MDT) Temp. Windchill Dew Point Humidity Pressure Visibility Wind Dir Wind Speed Gust Speed Precip Events Conditions
12:53 AM 64.0 °F - 16.0 °F 16% 29.79 in 10.0 mi WSW 5.8 mph - N/A   Clear
1:53 AM 57.9 °F - 19.0 °F 22% 29.81 in 10.0 mi WSW 4.6 mph - N/A   Clear
2:53 AM 51.1 °F - 26.1 °F 38% 29.83 in 10.0 mi Calm Calm - N/A   Clear
3:53 AM 46.9 °F - 23.0 °F 39% 29.84 in 10.0 mi SE 4.6 mph - N/A   Clear
4:53 AM 45.0 °F 43.5 °F 24.1 °F 44% 29.88 in 10.0 mi SE 3.5 mph - N/A   Clear
5:53 AM 46.0 °F - 25.0 °F 44% 29.89 in 10.0 mi Calm Calm - N/A   Clear
6:53 AM 46.9 °F - 28.0 °F 48% 29.91 in 10.0 mi Calm Calm - N/A   Clear
7:53 AM 52.0 °F - 32.0 °F 47% 29.91 in 10.0 mi Calm Calm - N/A   Clear
8:53 AM 55.9 °F - 32.0 °F 40% 29.91 in 10.0 mi Calm Calm - N/A   Clear
9:53 AM 63.0 °F - 30.9 °F 30% 29.88 in 10.0 mi Calm Calm - N/A   Clear
10:31 AM 66.2 °F - 30.2 °F 26% 30.06 in 1.2 mi Variable 3.5 mph - N/A   Haze
10:41 AM 68.0 °F - 30.2 °F 24% 30.06 in 5.0 mi Calm Calm - N/A   Haze
10:53 AM 68.0 °F - 30.0 °F 24% 29.84 in 2.0 mi Calm Calm - N/A   Haze
10:59 AM 69.8 °F - 30.2 °F 23% 30.06 in 2.0 mi Calm Calm - N/A   Haze
11:06 AM 69.8 °F - 28.4 °F 21% 30.05 in 5.0 mi ESE 3.5 mph - N/A   Haze
11:53 AM 75.0 °F - 27.0 °F 17% 29.82 in 10.0 mi NW 5.8 mph - N/A   Clear
12:53 PM 79.0 °F - 27.0 °F 15% 29.78 in 10.0 mi WNW 12.7 mph - N/A   Clear
1:53 PM 84.0 °F - 28.0 °F 13% 29.77 in 10.0 mi WSW 17.3 mph 28.8 mph N/A   Clear
2:53 PM 84.9 °F - 28.0 °F 13% 29.76 in 10.0 mi West 16.1 mph 28.8 mph N/A   Clear
3:53 PM 87.1 °F - 27.0 °F 11% 29.75 in 10.0 mi West 20.7 mph 34.5 mph N/A   Clear
4:53 PM 86.0 °F - 26.1 °F 11% 29.73 in 10.0 mi West 20.7 mph 32.2 mph N/A   Clear
5:53 PM 84.0 °F - 28.0 °F 13% 29.73 in 10.0 mi West 12.7 mph - N/A   Clear
6:53 PM 81.0 °F - 28.9 °F 15% 29.75 in 10.0 mi WNW 11.5 mph - N/A   Partly Cloudy
7:51 PM 78.8 °F - 28.4 °F 16% 29.96 in 10.0 mi Variable 4.6 mph 26.5 mph N/A   Partly Cloudy
7:53 PM 78.1 °F - 28.9 °F 17% 29.78 in 10.0 mi WNW 9.2 mph - N/A   Partly Cloudy
8:53 PM 75.9 °F - 30.0 °F 19% 29.79 in 10.0 mi Calm Calm - N/A   Partly Cloudy
9:53 PM 69.1 °F - 32.0 °F 25% 29.81 in 9.0 mi NNW 3.5 mph - N/A   Clear
10:53 PM 69.1 °F - 33.1 °F 26% 29.83 in 10.0 mi North 5.8 mph - N/A   Clear
11:53 PM 66.9 °F - 28.9 °F 24% 29.85 in 10.0 mi West 9.2 mph - N/A   Clear